Time,TemperatureF,DewpointF,PressureIn,WindDirection,WindDirectionDegrees,WindSpeedMPH,WindSpeedGustMPH,Humidity,HourlyPrecipIn,Conditions,Clouds,dailyrainin,SolarRadiationWatts/m^2,SoftwareType,DateUTC
2013-04-08 00:02:00,30.0,26.0,-100.00,NE,48,10.0,20.0,86,0.00,,,0.21,0.000000,,2013-04-08 06:02:00,
2013-04-08 00:12:00,30.0,26.0,-100.00,NE,48,10.0,20.0,86,0.00,,,0.21,0.000000,,2013-04-08 06:12:00,
2013-04-08 00:43:00,29.0,25.0,-100.00,NE,44,11.0,24.0,83,0.01,,,0.22,0.000000,,2013-04-08 06:43:00,
2013-04-08 00:52:00,29.0,25.0,-100.00,NE,44,11.0,24.0,83,0.01,,,0.22,0.000000,,2013-04-08 06:52:00,
2013-04-08 01:02:00,29.0,25.0,-100.00,NE,44,11.0,24.0,83,0.01,,,0.22,0.000000,,2013-04-08 07:02:00,
2013-04-08 01:12:00,29.0,25.0,-100.00,NE,44,11.0,24.0,83,0.01,,,0.22,0.000000,,2013-04-08 07:12:00,
2013-04-08 01:42:00,28.0,23.0,-100.00,NE,41,10.0,24.0,81,0.00,,,0.22,0.000000,,2013-04-08 07:42:00,
2013-04-08 01:52:00,28.0,23.0,-100.00,NE,41,10.0,24.0,81,0.00,,,0.22,0.000000,,2013-04-08 07:52:00,
2013-04-08 02:02:00,28.0,23.0,-100.00,NE,41,10.0,24.0,81,0.00,,,0.22,0.000000,,2013-04-08 08:02:00,
2013-04-08 02:11:00,28.0,23.0,-100.00,NE,41,10.0,24.0,81,0.00,,,0.22,0.000000,,2013-04-08 08:11:00,
2013-04-08 02:43:00,27.0,23.0,-100.00,NNE,32,10.0,26.0,83,0.00,,,0.22,0.000000,,2013-04-08 08:43:00,
2013-04-08 02:52:00,27.0,23.0,-100.00,NNE,32,10.0,26.0,83,0.00,,,0.22,0.000000,,2013-04-08 08:52:00,
2013-04-08 03:02:00,27.0,23.0,-100.00,NNE,32,10.0,26.0,83,0.00,,,0.22,0.000000,,2013-04-08 09:02:00,
2013-04-08 03:12:00,27.0,23.0,-100.00,NNE,32,10.0,26.0,83,0.00,,,0.22,0.000000,,2013-04-08 09:12:00,
2013-04-08 03:43:00,26.0,22.0,-100.00,NE,37,11.0,24.0,84,0.00,,,0.22,0.000000,,2013-04-08 09:43:00,
2013-04-08 03:53:00,26.0,22.0,-100.00,NE,37,11.0,24.0,84,0.00,,,0.22,0.000000,,2013-04-08 09:53:00,
2013-04-08 04:03:00,26.0,22.0,-100.00,NE,37,11.0,24.0,84,0.00,,,0.22,0.000000,,2013-04-08 10:03:00,
2013-04-08 04:12:00,26.0,22.0,-100.00,NE,37,11.0,24.0,84,0.00,,,0.22,0.000000,,2013-04-08 10:12:00,
2013-04-08 04:43:00,25.0,21.0,-100.00,NNE,32,11.0,23.0,83,0.00,,,0.22,0.000000,,2013-04-08 10:43:00,
2013-04-08 04:53:00,25.0,21.0,-100.00,NNE,32,11.0,23.0,83,0.00,,,0.22,0.000000,,2013-04-08 10:53:00,
2013-04-08 05:02:00,25.0,21.0,-100.00,NNE,32,11.0,23.0,83,0.00,,,0.22,0.000000,,2013-04-08 11:02:00,
2013-04-08 05:12:00,25.0,21.0,-100.00,NNE,32,11.0,23.0,83,0.00,,,0.22,0.000000,,2013-04-08 11:12:00,
2013-04-08 05:43:00,24.0,19.0,-100.00,NNE,24,9.0,25.0,82,0.00,,,0.22,0.000000,,2013-04-08 11:43:00,
2013-04-08 05:52:00,24.0,19.0,-100.00,NNE,24,9.0,25.0,82,0.00,,,0.22,0.000000,,2013-04-08 11:52:00,
2013-04-08 06:02:00,24.0,19.0,-100.00,NNE,24,9.0,25.0,82,0.00,,,0.22,0.000000,,2013-04-08 12:02:00,
2013-04-08 06:12:00,24.0,19.0,-100.00,NNE,24,9.0,25.0,82,0.00,,,0.22,0.000000,,2013-04-08 12:12:00,
2013-04-08 06:43:00,23.0,19.0,-100.00,NE,37,8.0,22.0,86,0.00,,,0.22,0.000000,,2013-04-08 12:43:00,
2013-04-08 06:52:00,23.0,19.0,-100.00,NE,37,8.0,22.0,86,0.00,,,0.22,0.000000,,2013-04-08 12:52:00,
2013-04-08 07:02:00,23.0,19.0,-100.00,NE,37,8.0,22.0,86,0.00,,,0.22,0.000000,,2013-04-08 13:02:00,
2013-04-08 07:12:00,23.0,19.0,-100.00,NE,37,8.0,22.0,86,0.00,,,0.22,0.000000,,2013-04-08 13:12:00,
2013-04-08 07:43:00,23.0,19.0,-100.00,NNE,33,10.0,20.0,85,0.00,,,0.22,0.000000,,2013-04-08 13:43:00,
2013-04-08 07:52:00,23.0,19.0,-100.00,NNE,33,10.0,20.0,85,0.00,,,0.22,0.000000,,2013-04-08 13:52:00,
2013-04-08 08:02:00,23.0,19.0,-100.00,NNE,33,10.0,20.0,85,0.00,,,0.22,0.000000,,2013-04-08 14:02:00,
2013-04-08 08:12:00,23.0,19.0,-100.00,NNE,33,10.0,20.0,85,0.00,,,0.22,0.000000,,2013-04-08 14:12:00,
2013-04-08 08:33:00,22.0,18.0,-100.00,NE,34,8.0,20.0,84,0.00,,,0.22,15.000000,,2013-04-08 14:33:00,
2013-04-08 08:43:00,22.0,18.0,-100.00,NE,34,8.0,20.0,84,0.00,,,0.22,15.000000,,2013-04-08 14:43:00,
2013-04-08 08:52:00,22.0,18.0,-100.00,NE,34,8.0,20.0,84,0.00,,,0.22,15.000000,,2013-04-08 14:52:00,
2013-04-08 09:02:00,22.0,18.0,-100.00,NE,34,8.0,20.0,84,0.00,,,0.22,15.000000,,2013-04-08 15:02:00,
2013-04-08 09:12:00,22.0,18.0,-100.00,NE,34,8.0,20.0,84,0.00,,,0.22,15.000000,,2013-04-08 15:12:00,
2013-04-08 09:35:00,23.0,17.0,-100.00,NNE,27,7.0,21.0,78,0.00,,,0.22,47.000000,,2013-04-08 15:35:00,
2013-04-08 09:43:00,23.0,17.0,-100.00,NNE,27,7.0,21.0,78,0.00,,,0.22,47.000000,,2013-04-08 15:43:00,
2013-04-08 09:53:00,23.0,17.0,-100.00,NNE,27,7.0,21.0,78,0.00,,,0.22,47.000000,,2013-04-08 15:53:00,
2013-04-08 10:03:00,23.0,17.0,-100.00,NNE,27,7.0,21.0,78,0.00,,,0.22,47.000000,,2013-04-08 16:03:00,
2013-04-08 10:12:00,23.0,17.0,-100.00,NNE,27,7.0,21.0,78,0.00,,,0.22,47.000000,,2013-04-08 16:12:00,
2013-04-08 11:44:00,28.0,20.0,-100.00,ENE,57,8.0,16.0,71,-99.99,,,0.21,322.000000,,2013-04-08 17:44:00,
2013-04-08 11:52:00,28.0,20.0,-100.00,ENE,57,8.0,16.0,71,-99.99,,,0.21,322.000000,,2013-04-08 17:52:00,
2013-04-08 12:02:00,28.0,20.0,-100.00,ENE,57,8.0,16.0,71,-99.99,,,0.21,322.000000,,2013-04-08 18:02:00,
2013-04-08 12:11:00,28.0,20.0,-100.00,ENE,57,8.0,16.0,71,-99.99,,,0.21,322.000000,,2013-04-08 18:11:00,
2013-04-08 12:42:00,33.0,19.0,-100.00,NNE,31,7.0,16.0,57,0.04,,,0.24,685.000000,,2013-04-08 18:42:00,
2013-04-08 12:52:00,33.0,19.0,-100.00,NNE,31,7.0,16.0,57,0.04,,,0.24,685.000000,,2013-04-08 18:52:00,
2013-04-08 13:02:00,33.0,19.0,-100.00,NNE,31,7.0,16.0,57,0.04,,,0.24,685.000000,,2013-04-08 19:02:00,
2013-04-08 13:12:00,33.0,19.0,-100.00,NNE,31,7.0,16.0,57,0.04,,,0.24,685.000000,,2013-04-08 19:12:00,
2013-04-08 13:43:00,34.0,17.0,-100.00,NNE,19,6.0,15.0,50,0.00,,,0.22,781.000000,,2013-04-08 19:43:00,
2013-04-08 13:52:00,34.0,17.0,-100.00,NNE,19,6.0,15.0,50,0.00,,,0.22,781.000000,,2013-04-08 19:52:00,
2013-04-08 14:02:00,34.0,17.0,-100.00,NNE,19,6.0,15.0,50,0.00,,,0.22,781.000000,,2013-04-08 20:02:00,
2013-04-08 14:12:00,34.0,17.0,-100.00,NNE,19,6.0,15.0,50,0.00,,,0.22,781.000000,,2013-04-08 20:12:00,
2013-04-08 14:43:00,33.0,16.0,-100.00,NE,52,5.0,13.0,50,0.00,,,0.20,797.000000,,2013-04-08 20:43:00,
2013-04-08 14:52:00,33.0,16.0,-100.00,NE,52,5.0,13.0,50,0.00,,,0.20,797.000000,,2013-04-08 20:52:00,
2013-04-08 15:02:00,33.0,16.0,-100.00,NE,52,5.0,13.0,50,0.00,,,0.20,797.000000,,2013-04-08 21:02:00,
2013-04-08 15:12:00,33.0,16.0,-100.00,NE,52,5.0,13.0,50,0.00,,,0.20,797.000000,,2013-04-08 21:12:00,
2013-04-08 15:43:00,34.0,19.0,-100.00,NE,42,5.0,13.0,53,0.00,,,0.19,334.000000,,2013-04-08 21:43:00,
2013-04-08 15:53:00,34.0,19.0,-100.00,NE,42,5.0,13.0,53,0.00,,,0.19,334.000000,,2013-04-08 21:53:00,
2013-04-08 16:02:00,34.0,19.0,-100.00,NE,42,5.0,13.0,53,0.00,,,0.19,334.000000,,2013-04-08 22:02:00,
2013-04-08 16:12:00,34.0,19.0,-100.00,NE,42,5.0,13.0,53,0.00,,,0.19,334.000000,,2013-04-08 22:12:00,
2013-04-08 16:43:00,34.0,18.0,-100.00,ENE,66,4.0,11.0,52,0.00,,,0.19,291.000000,,2013-04-08 22:43:00,
2013-04-08 16:53:00,34.0,18.0,-100.00,ENE,66,4.0,11.0,52,0.00,,,0.19,291.000000,,2013-04-08 22:53:00,
2013-04-08 17:02:00,34.0,18.0,-100.00,ENE,66,4.0,11.0,52,0.00,,,0.19,291.000000,,2013-04-08 23:02:00,
2013-04-08 17:12:00,34.0,18.0,-100.00,ENE,66,4.0,11.0,52,0.00,,,0.19,291.000000,,2013-04-08 23:12:00,
2013-04-08 17:43:00,34.0,18.0,-100.00,NE,55,5.0,11.0,51,0.00,,,0.11,252.000000,,2013-04-08 23:43:00,
2013-04-08 17:52:00,34.0,18.0,-100.00,NE,55,5.0,11.0,51,0.00,,,0.11,252.000000,,2013-04-08 23:52:00,
2013-04-08 18:02:00,34.0,18.0,-100.00,NE,55,5.0,11.0,51,0.00,,,0.11,252.000000,,2013-04-09 00:02:00,
2013-04-08 18:12:00,34.0,18.0,-100.00,NE,55,5.0,11.0,51,0.00,,,0.11,252.000000,,2013-04-09 00:12:00,
2013-04-08 18:42:00,34.0,17.0,-100.00,North,6,6.0,11.0,49,0.00,,,0.05,217.000000,,2013-04-09 00:42:00,
2013-04-08 18:52:00,34.0,17.0,-100.00,North,6,6.0,11.0,49,0.00,,,0.05,217.000000,,2013-04-09 00:52:00,
2013-04-08 19:02:00,34.0,17.0,-100.00,North,6,6.0,11.0,49,0.00,,,0.05,217.000000,,2013-04-09 01:02:00,
2013-04-08 19:12:00,34.0,17.0,-100.00,North,6,6.0,11.0,49,0.00,,,0.05,217.000000,,2013-04-09 01:12:00,
2013-04-08 19:34:00,33.0,18.0,-100.00,NE,36,3.0,9.0,53,0.00,,,0.05,98.000000,,2013-04-09 01:34:00,
2013-04-08 19:42:00,33.0,18.0,-100.00,NE,36,3.0,9.0,53,0.00,,,0.05,98.000000,,2013-04-09 01:42:00,
2013-04-08 19:52:00,33.0,18.0,-100.00,NE,36,3.0,9.0,53,0.00,,,0.05,98.000000,,2013-04-09 01:52:00,
2013-04-08 20:02:00,33.0,18.0,-100.00,NE,36,3.0,9.0,53,0.00,,,0.05,98.000000,,2013-04-09 02:02:00,
2013-04-08 20:12:00,33.0,18.0,-100.00,NE,36,3.0,9.0,53,0.00,,,0.05,98.000000,,2013-04-09 02:12:00,
2013-04-08 20:44:00,29.0,18.0,-100.00,NE,41,3.0,9.0,63,0.00,,,0.05,25.000000,,2013-04-09 02:44:00,
2013-04-08 20:52:00,29.0,18.0,-100.00,NE,41,3.0,9.0,63,0.00,,,0.05,25.000000,,2013-04-09 02:52:00,
2013-04-08 21:02:00,29.0,18.0,-100.00,NE,41,3.0,9.0,63,0.00,,,0.05,25.000000,,2013-04-09 03:02:00,
2013-04-08 21:12:00,29.0,18.0,-100.00,NE,41,3.0,9.0,63,0.00,,,0.05,25.000000,,2013-04-09 03:12:00,
2013-04-08 21:43:00,28.0,15.0,-100.00,NE,40,6.0,11.0,58,0.00,,,0.05,1.000000,,2013-04-09 03:43:00,
2013-04-08 21:53:00,28.0,15.0,-100.00,NE,40,6.0,11.0,58,0.00,,,0.05,1.000000,,2013-04-09 03:53:00,
2013-04-08 22:02:00,28.0,15.0,-100.00,NE,40,6.0,11.0,58,0.00,,,0.05,1.000000,,2013-04-09 04:02:00,
2013-04-08 22:12:00,28.0,15.0,-100.00,NE,40,6.0,11.0,58,0.00,,,0.05,1.000000,,2013-04-09 04:12:00,
2013-04-08 22:43:00,27.0,14.0,-100.00,NE,42,5.0,11.0,57,0.00,,,0.05,0.000000,,2013-04-09 04:43:00,
2013-04-08 22:53:00,27.0,14.0,-100.00,NE,42,5.0,11.0,57,0.00,,,0.05,0.000000,,2013-04-09 04:53:00,
2013-04-08 23:02:00,27.0,14.0,-100.00,NE,42,5.0,11.0,57,0.00,,,0.05,0.000000,,2013-04-09 05:02:00,
2013-04-08 23:12:00,27.0,14.0,-100.00,NE,42,5.0,11.0,57,0.00,,,0.05,0.000000,,2013-04-09 05:12:00,
2013-04-08 23:32:00,26.0,14.0,-100.00,West,259,7.0,13.0,59,0.00,,,0.05,0.000000,,2013-04-09 05:32:00,
2013-04-08 23:43:00,26.0,14.0,-100.00,West,259,7.0,13.0,59,0.00,,,0.05,0.000000,,2013-04-09 05:43:00,
2013-04-08 23:52:00,26.0,14.0,-100.00,West,259,7.0,13.0,59,0.00,,,0.05,0.000000,,2013-04-09 05:52:00,